Location: Correggioverde
(44.9333°N, 10.6333°E)
Time: 23:52:53
(UTC+00:00)

Daily predictions for brighter satellites

Satellite Brightness Start Highest point End
(mag) Time Altitude Azimuth Time Altitude Azimuth Time Altitude Azimuth
BREEZE-M DEB (TANK) 3.8 17:00:50 10° SW 17:04:34 57° SE 17:17:25 10° ENE
BREEZE-M DEB (TANK) 1.9 17:17:04 10° WNW 17:19:12 62° NNE 17:22:11 10° ESE
Cosmos 1674 3.5 17:17:09 10° NNW 17:20:50 54° W 17:24:25 10° S
Cosmos 1975 4.3 17:20:17 10° SSW 17:24:07 42° WNW 17:27:59 10° N
COSMO-SKYMED 1 2.5 17:22:03 10° NNE 17:26:25 74° ESE 17:30:45 10° S
Cosmos 2263 Rocket 2.2 17:20:50 10° NNW 17:26:32 66° ENE 17:32:10 10° SE
Cosmos 1437 Rocket 3.9 17:26:40 10° SE 17:29:27 20° E 17:32:13 10° NE
HJ-1C 4.3 17:28:59 10° SE 17:31:36 25° ENE 17:34:13 10° NNE
Spot 1 4.2 17:27:51 10° NNE 17:31:54 48° E 17:35:49 10° S
Cosmos 1741 Rocket 4.0 17:26:52 10° SSW 17:32:10 85° ESE 17:37:27 10° NNE
ASTEX 1 3.4 17:27:25 10° N 17:32:25 70° E 17:37:24 10° S
USA 267 3.3 17:28:50 10° ESE 17:35:23 78° NE 17:41:57 10° NW
Cosmos 1626 4.1 17:34:01 10° NNW 17:37:19 33° W 17:40:36 10° SSW
Cosmos 1814 Rocket 4.2 17:32:54 10° NNW 17:38:02 51° ENE 17:43:04 10° SE
SL-4 R/B 2.3 17:33:42 10° WNW 17:38:06 68° NNE 17:42:27 12° ESE
Cosmos 1805 3.4 17:36:58 10° SSW 17:40:50 77° W 17:44:44 10° N
Cosmos 1242 Rocket 3.5 17:38:42 10° SSW 17:42:09 50° WNW 17:45:37 10° N
IRIDIUM 114 4.5 17:38:43 10° SSE 17:43:44 52° E 17:48:48 10° NNE
Cosmos 2227 4.3 17:38:17 10° NNW 17:43:49 54° ENE 17:49:18 10° SE
Okean-O 4.3 17:42:55 13° E 17:44:37 15° ENE 17:47:13 10° NNE
CZ-4 R/B 2.0 17:43:17 10° SE 17:47:08 37° ENE 17:51:00 10° N
Cosmos 1697 Rocket 4.5 17:42:33 10° WSW 17:47:35 33° NW 17:52:39 10° N
ISS -2.8 17:44:45 10° WNW 17:48:01 46° SW 17:51:15 10° SE
Meteor 1-12 Rocket 4.5 17:44:03 10° S 17:49:52 55° E 17:55:44 10° NNE
BREEZE M DEB (TANK) 3.7 17:42:56 10° SW 17:50:42 35° SSE 17:53:03 17° E
Cosmos 1908 Rocket 3.7 17:48:20 10° SSE 17:52:29 47° E 17:56:39 10° NNE
IRIDIUM 103 4.3 17:47:43 10° S 17:52:51 63° E 17:58:01 10° N
Meteor 2-21 4.4 17:46:59 10° S 17:52:59 76° E 17:59:02 10° NNE
OBJECT-B 2.7 17:54:14 10° NE 17:54:14 10° NE 17:54:19 10° NE
MOS 1-B 4.3 17:47:19 10° SSE 17:53:07 83° ENE 17:58:58 10° NNW
Cosmos 1733 4.4 17:50:47 10° SSW 17:54:24 46° WNW 17:58:00 10° N
Cosmos 2360 Rocket 3.3 17:50:41 10° SE 17:54:40 20° E 17:58:40 10° NE
SL-14 R/B 3.6 17:50:46 10° NNW 17:54:43 69° W 17:58:41 10° S
Cosmos 1766 3.2 17:56:46 10° S 18:00:40 84° E 18:04:38 10° N
Cosmos 1782 Rocket 4.2 17:56:55 10° SSE 18:00:44 31° E 18:04:36 10° NNE
Cosmos 1674 Rocket 3.9 17:59:33 10° NNW 18:03:58 71° W 18:08:23 10° S
YAOGAN 1 2.5 18:01:02 10° SSE 18:05:20 83° ENE 18:09:42 10° NNW
Cosmos 1025 Rocket 4.0 18:02:54 10° NNE 18:06:37 27° ENE 18:07:56 23° ESE
Cosmos 2026 Rocket 4.3 18:01:11 10° SSE 18:06:43 39° E 18:12:17 10° NNE
Cosmos 968 Rocket 3.5 18:02:13 10° S 18:07:24 62° ESE 18:12:35 10° NNE
Okean O Rocket 1.5 18:04:51 10° SSE 18:09:11 75° ENE 18:13:35 10° N
IRIDIUM 106 4.3 18:05:55 10° S 18:11:07 90° S 18:16:23 10° N
Lacrosse 4 Rocket 2.0 18:08:38 10° S 18:12:16 33° ESE 18:13:56 24° ENE
Nadezhda 4 Rocket 4.0 18:08:11 10° S 18:14:30 90° E 18:20:51 10° N
Meteor 1-15 Rocket 4.1 18:10:45 10° S 18:16:17 76° E 18:21:52 10° NNE
Meteor 2-5 Rocket 3.7 18:10:56 10° N 18:16:25 60° ENE 18:21:53 10° SSE
CSL-04 Rocket 4.2 18:13:27 21° ESE 18:16:29 38° ENE 18:21:26 10° N
USA 186 2.7 18:22:41 33° NE 18:22:41 33° NE 18:25:24 10° N
Cosmos 1726 3.7 18:19:32 10° SW 18:22:56 36° WNW 18:26:21 10° N
Cosmos 2285 Rocket 4.1 18:16:38 10° NNW 18:23:01 83° WSW 18:29:24 10° SSE
Cosmos 2322 Rocket 2.3 18:17:46 10° S 18:23:16 52° ESE 18:28:48 10° NE
Cosmos 2237 4.3 18:18:20 10° S 18:23:52 54° ESE 18:29:24 10° NE
Cosmos 1470 2.5 18:23:40 10° S 18:27:29 69° E 18:31:19 10° NNE
CZ-4B R/B 3.8 18:22:24 10° S 18:27:42 59° WSW 18:33:08 10° NNW
Cosmos 1980 Rocket 4.0 18:24:45 10° WSW 18:29:42 31° NW 18:34:41 10° N
NOSS 3-3 (A) 4.3 18:26:05 10° S 18:30:58 34° ESE 18:32:26 30° E
NOSS 3-3 (C) 4.3 18:26:12 10° S 18:31:05 34° ESE 18:32:21 30° E
Cosmos 1975 Rocket 3.1 18:27:28 10° N 18:31:47 52° ENE 18:33:09 37° SE
CRYOSAT 2 4.4 18:34:18 23° SSE 18:37:16 57° E 18:42:05 10° N
Cosmos 2292 Rocket 3.8 18:32:25 10° SSW 18:37:42 75° W 18:41:42 10° N
USA 215 4.2 18:37:16 10° NE 18:43:23 43° NNW 18:49:28 10° W
IRS-1C Rocket 4.1 18:43:42 39° SE 18:45:20 56° ENE 18:50:29 10° N
Cosmos 1844 Rocket 2.6 18:45:40 10° NNW 18:51:20 67° ENE 18:52:59 45° SE
SL-16 R/B 2.5 18:47:55 10° SW 18:53:34 68° WNW 18:59:15 10° NNE
Cosmos 1092 Rocket 4.1 18:49:43 10° SSW 18:56:02 78° W 19:02:20 10° N
Landsat 5 3.5 18:51:54 10° NNE 18:56:25 88° ESE 19:00:50 10° SSW
Resurs 01 Rocket 3.2 19:01:19 22° NNE 19:01:19 22° NNE 19:03:22 10° N
SJ-6B 2.8 19:02:07 71° NW 19:02:07 71° NW 19:05:36 10° NNW
Cosmos 836 Rocket 4.4 18:57:23 10° NNW 19:02:43 76° ENE 19:03:34 61° SE
H-2A R/B 4.2 19:07:11 20° NNE 19:07:11 20° NNE 19:08:33 10° N
Cosmos 2278 Rocket 4.1 19:02:45 10° N 19:05:41 16° NE 19:05:41 16° NE
Resurs 1-3 3.7 19:11:26 67° N 19:11:26 67° N 19:15:17 10° NNW
Meteor 1-24 Rocket 4.3 19:06:29 10° NNW 19:11:38 53° W 19:16:12 14° SSW
SL-4 R/B 3.6 19:13:24 10° WNW 19:17:26 31° SW 19:17:51 31° SSW
Cosmos 2084 Rocket 4.3 19:16:46 10° NW 19:19:51 43° W 19:19:51 43° W
Okean-O 2.9 19:20:29 62° WSW 19:20:36 63° WSW 19:25:01 10° NNW
CZ-4 R/B 3.9 19:19:01 10° SW 19:22:10 21° W 19:25:20 10° NW
Cosmos 1486 Rocket 4.1 19:17:32 10° SSW 19:22:51 76° WNW 19:28:13 10° NNE
IGS 5A 4.3 19:24:37 48° W 19:24:37 48° W 19:28:35 10° NNW
Cosmos 1844 3.6 19:20:15 10° NNW 19:25:50 80° WSW 19:26:12 75° SSW
DNEPR-1 R/B 4.4 19:22:49 10° SW 19:27:28 60° NW 19:30:36 25° NNE
Cosmos 2333 Rocket 4.5 19:24:03 10° SSW 19:36:34 - NNE 19:24:21 12° SSW
Cosmos 1300 Rocket 4.3 19:30:14 49° WNW 19:30:14 49° WNW 19:34:18 10° N
S3M 4.1 19:24:45 10° N 19:30:10 58° NE 19:30:10 58° NE
Cosmos 2360 Rocket 2.5 19:32:31 10° SW 19:38:06 64° WNW 19:43:44 10° NNE
Lacrosse 4 Rocket 3.4 19:47:23 10° WSW 19:50:17 26° WNW 19:50:17 26° WNW
Cosmos 1417 Rocket 4.5 19:45:12 10° N 19:51:03 75° WNW 19:51:03 75° WNW
ATLAS 2AS CENTAUR R/B 4.2 19:55:33 10° NNW 20:01:20 25° NNE 20:01:35 25° NNE
Cosmos 2322 Rocket 4.0 20:02:42 10° WSW 20:07:36 29° NW 20:12:31 10° N
NOSS 3-4 (A) 4.1 20:06:16 10° NW 20:12:04 61° N 20:12:04 61° N
NOSS 3-4 (C) 4.1 20:06:23 10° NW 20:12:10 60° N 20:12:10 60° N
USA 281 4.3 20:27:40 35° N 20:27:40 35° N 20:31:36 10° NNW
Cosmos 2278 Rocket 4.2 20:45:34 10° NNW 20:47:32 22° NNW 20:47:32 22° NNW
